Location: Newark
(51.0500°N, 12.4500°E)
Time: 01:46:14
(UTC+00:00)

Vanguard 1 - Pass Details

Date: 21 February 2020
Orbit: 649 x 3833 km, 34.2° (Epoch: 08 April)

Event Time Altitude Azimuth Distance (km) Brightness Sun altitude
Rises 07:55:56 0° 231° (SW) 7,892 14.5 13.6°
Reaches altitude 10° 08:02:19 10° 224° (SW) 6,650 14.3 14.4°
Maximum altitude 08:19:19 35° 169° (S) 3,790 14.0 16.5°
Drops below altitude 10° 08:30:15 10° 109° (ESE) 4,319 14.7 17.7°
Sets 08:33:21 0° 100° (E) 4,941 14.6 18.1°
